Montgomery, NY

1:38 AM EST on January 24, 2018 (GMT -0500)
Orange County

Weather History for KMGJ - October, 2012

Change the Weather History Date:

Tuesday, October 9, 2012

  Actual Average (KSWF) Record (KSWF)
Temperature  
Mean Temperature 52 °F -  
Max Temperature 59 °F 62 °F 84 °F (2011)
Min Temperature 46 °F 42 °F 28 °F (1974)
Degree Days  
Heating Degree Days 14    
Growing Degree Days 2 (Base 50)    
Moisture  
Dew Point 46 °F    
Average Humidity 79    
Maximum Humidity 89    
Minimum Humidity 70    
Precipitation  
Precipitation 0.00 in - - ()
Sea Level Pressure  
Sea Level Pressure 30.18 in    
Wind  
Wind Speed 4 mph (NE)    
Max Wind Speed 9 mph    
Max Gust Speed -    
Visibility 10 miles    
Events      
Averages and records for this station are not official NWS values.
T = Trace of Precipitation, MM = Missing Value Source: NWS Daily Summary

Daily Weather History Graph

Daily Weather History Graph

Search for Another Location

Airport or City:

Trip Planner

Search our weather history database for the weather conditions in past years. The results will help you decide how hot, cold, wet, or windy it might be!

Date:

Astronomy

Oct. 09, 2012 Rise Set
Actual Time 7:02 AM EDT 6:24 PM EDT
Civil Twilight 6:35 AM EDT 6:52 PM EDT
Nautical Twilight 6:03 AM EDT 7:24 PM EDT
Astronomical Twilight 5:30 AM EDT 7:56 PM EDT
Moon 12:32 AM EDT (10/9) 2:54 PM EDT (10/9)
Length of Visible Light 12h 17m
Length of Day
11h 21m
Last Quarter, 37% of the Moon is Illuminated
Oct 9
Last Quarter
Oct 15
New
Oct 21
First Quarter
Oct 29
Full
Nov 6
Last Quarter

Hourly Weather History & Observations

Time (EDT) Temp. Windchill Dew Point Humidity Pressure Visibility Wind Dir Wind Speed Gust Speed Precip Events Conditions
1:54 AM 46.0 °F - 43.0 °F 89% 30.25 in 10.0 mi Calm Calm - N/A   Overcast
2:54 AM 46.0 °F 44.8 °F 43.0 °F 89% 30.24 in 10.0 mi NNE 3.5 mph - N/A   Overcast
3:54 AM 46.9 °F - 43.0 °F 86% 30.24 in 10.0 mi NE 5.8 mph - N/A   Overcast
5:54 AM 46.9 °F - 43.0 °F 86% 30.23 in 10.0 mi NNE 4.6 mph - N/A   Overcast
6:54 AM 46.9 °F - 43.0 °F 86% 30.23 in 10.0 mi NNE 5.8 mph - N/A   Overcast
7:54 AM 46.9 °F - 42.1 °F 83% 30.24 in 10.0 mi NNE 5.8 mph - N/A   Overcast
8:54 AM 48.9 °F - 43.0 °F 80% 30.23 in 10.0 mi NNE 9.2 mph - N/A   Overcast
9:54 AM 51.1 °F - 44.1 °F 77% 30.23 in 10.0 mi NNE 8.1 mph - N/A   Overcast
10:54 AM 53.1 °F - 46.0 °F 77% 30.23 in 10.0 mi North 5.8 mph - N/A   Overcast
11:54 AM 55.9 °F - 46.9 °F 72% 30.21 in 10.0 mi Variable 5.8 mph - N/A   Overcast
12:08 PM 55.4 °F - 46.4 °F 72% 30.21 in 10.0 mi ENE 4.6 mph - N/A   Overcast
12:54 PM 57.9 °F - 48.0 °F 70% 30.18 in 10.0 mi NNE 5.8 mph - N/A   Overcast
1:54 PM 57.9 °F - 48.0 °F 70% 30.15 in 10.0 mi North 6.9 mph - N/A   Overcast
2:54 PM 57.9 °F - 48.0 °F 70% 30.14 in 10.0 mi NNE 4.6 mph - N/A   Overcast
3:54 PM 57.9 °F - 48.0 °F 70% 30.14 in 10.0 mi ENE 6.9 mph - N/A   Overcast
4:54 PM 57.9 °F - 48.9 °F 72% 30.14 in 10.0 mi ENE 4.6 mph - N/A   Overcast
5:54 PM 57.0 °F - 48.9 °F 74% 30.13 in 10.0 mi East 3.5 mph - N/A   Overcast
6:54 PM 55.9 °F - 48.9 °F 77% 30.12 in 10.0 mi East 3.5 mph - N/A   Overcast
7:54 PM 55.0 °F - 48.9 °F 80% 30.12 in 10.0 mi Calm Calm - N/A   Overcast
8:54 PM 54.0 °F - 48.9 °F 83% 30.12 in 10.0 mi NNE 3.5 mph - N/A   Overcast
9:54 PM 54.0 °F - 48.9 °F 83% 30.11 in 10.0 mi NNE 4.6 mph - N/A   Overcast
10:54 PM 54.0 °F - 50.0 °F 86% 30.11 in 10.0 mi NNE 3.5 mph - N/A   Overcast
11:54 PM 54.0 °F - 48.9 °F 83% 30.09 in 10.0 mi North 3.5 mph - N/A   Overcast